820  
SXUS52 KJAX 030810  
OSOJAX  
OTHER SURFACE OBSERVATIONS  
NATIONAL WEATHER SERVICE JACKSONVILLE FL  
300 AM EST SUN MAR 03 2024  
 
FLZ020>025-030>033-035>038-040-030900-   
..FLORIDA
 
 
 
CITY SKY/WX TMP DP RH WIND PRES REMARKS  
CECIL FIELD MOCLDY 63 63 100 CALM 30.10F  
FERNANDINA BCH CLOUDY 63 61 94 W3 30.09F  
LAKE CITY CLOUDY 63 61 94 E3 30.10F  
KEYSTONE HGTS N/A 64 64 100 CALM 30.09F FOG  

 
 
GAZ132>136-149>154-162>166-030900-   
..GEORGIA
 
 
 
CITY SKY/WX TMP DP RH WIND PRES REMARKS  
JESUP FOG 61 61 100 CALM 30.15F VSB 1/2  
HOMERVILLE CLOUDY 62 60 96 CALM 30.13R  
SWAINSBORO CLOUDY 52 52 100 CALM 30.14S  
CORDELE CLOUDY 57 56 97 CALM 30.14S FOG  
EASTMAN CLOUDY 55 55 100 CALM 30.16S  

 
 
PLEASE NOTE: THESE OBSERVATIONS ARE NOT QUALITY CONTROLLED AND MAY  
NOT BE AVAILABLE AT ALL TIMES.  

 
 
 
CLICK HERE TO GO TO PREVIOUS BULLETINS.

The Nexlab FL Page
The Nexlab GA Page Main Text Page